Weather History for KSZL - June, 2013

Change the Weather History Date:

Sunday, June 2, 2013

  Actual Average Record
Temperature  
Mean Temperature 58 °F -  
Max Temperature 64 °F 76 °F 93 °F (1998)
Min Temperature 51 °F 58 °F 50 °F (2001)
Degree Days  
Heating Degree Days 8    
Growing Degree Days 8 (Base 50)    
Moisture  
Dew Point 55 °F    
Average Humidity 84    
Maximum Humidity 100    
Minimum Humidity 71    
Precipitation  
Precipitation 0.00 in - - ()
Sea Level Pressure  
Sea Level Pressure 30.04 in    
Wind  
Wind Speed 7 mph (NNW)    
Max Wind Speed 13 mph    
Max Gust Speed -    
Visibility 10 miles    
Events      
Averages and records for this station are not official NWS values.
T = Trace of Precipitation, MM = Missing Value Source: NWS Daily Summary

Daily Weather History Graph

Daily Weather History Graph

Search for Another Location

Airport or City:

Trip Planner

Search our weather history database for the weather conditions in past years. The results will help you decide how hot, cold, wet, or windy it might be!

Date:

Astronomy

Jun. 02, 2013 Rise Set
Actual Time 5:50 AM CDT 8:34 PM CDT
Civil Twilight 5:19 AM CDT 9:05 PM CDT
Nautical Twilight 4:40 AM CDT 9:44 PM CDT
Astronomical Twilight 3:55 AM CDT 10:29 PM CDT
Moon 2:14 AM CDT (6/2) 3:08 PM CDT (6/2)
Length of Visible Light 15h 46m
Length of Day
14h 43m
Waning Crescent, 30% of the Moon is Illuminated
Jun 2
Waning Crescent
Jun 8
New
Jun 16
First Quarter
Jun 23
Full
Jun 29
Last Quarter

Hourly Weather History & Observations

Time (CDT) Temp. Dew Point Humidity Pressure Visibility Wind Dir Wind Speed Gust Speed Precip Events Conditions
12:53 AM 59.0 °F 59.0 °F 100% 29.97 in 10.0 mi West 3.5 mph - N/A   Mostly Cloudy
12:58 AM 58.6 °F 58.3 °F 99% 29.97 in 10.0 mi West 3.5 mph - N/A   Mostly Cloudy
1:58 AM 59.2 °F 58.8 °F 99% 29.98 in 10.0 mi NW 6.9 mph - N/A   Overcast
2:58 AM 59.4 °F 55.6 °F 87% 29.99 in 10.0 mi NNW 9.2 mph - N/A   Overcast
3:58 AM 58.8 °F 55.0 °F 87% 29.99 in 10.0 mi NNW 6.9 mph - N/A   Overcast
4:58 AM 57.9 °F 55.0 °F 90% 30.00 in 10.0 mi North 9.2 mph - N/A   Overcast
5:58 AM 57.6 °F 55.6 °F 93% 30.01 in 10.0 mi NW 8.1 mph - N/A   Overcast
6:58 AM 57.2 °F 55.8 °F 95% 30.03 in 10.0 mi NW 6.9 mph - N/A   Overcast
7:58 AM 57.4 °F 54.9 °F 91% 30.04 in 10.0 mi NNW 10.4 mph - N/A   Overcast
8:58 AM 58.3 °F 54.0 °F 86% 30.05 in 10.0 mi NW 11.5 mph - N/A   Overcast
9:58 AM 58.8 °F 53.8 °F 83% 30.06 in 10.0 mi NNW 10.4 mph - N/A   Overcast
10:58 AM 59.2 °F 54.5 °F 84% 30.07 in 10.0 mi NW 8.1 mph - N/A   Overcast
11:58 AM 59.5 °F 54.7 °F 84% 30.09 in 10.0 mi NNW 9.2 mph - N/A   Overcast
12:48 PM 60.8 °F 53.6 °F 77% 30.08 in 10.0 mi NNW 8.1 mph - N/A   Overcast
12:58 PM 60.8 °F 54.5 °F 80% 30.09 in 10.0 mi NNW 5.8 mph - N/A   Overcast
1:43 PM 59.0 °F 53.6 °F 82% 30.08 in 10.0 mi NNW 11.5 mph - N/A   Overcast
1:58 PM 59.4 °F 53.2 °F 80% 30.09 in 10.0 mi NNW 5.8 mph - N/A   Overcast
2:28 PM 60.8 °F 53.6 °F 77% 30.07 in 10.0 mi Variable 5.8 mph - N/A   Overcast
2:58 PM 61.3 °F 54.1 °F 77% 30.07 in 10.0 mi North 3.5 mph - N/A   Overcast
3:03 PM 60.8 °F 53.6 °F 77% 30.07 in 10.0 mi Variable 6.9 mph - N/A   Overcast
3:23 PM 62.6 °F 53.6 °F 72% 30.06 in 10.0 mi NNE 9.2 mph - N/A   Overcast
3:58 PM 63.5 °F 54.7 °F 73% 30.05 in 10.0 mi NNW 10.4 mph - N/A   Overcast
4:08 PM 62.6 °F 55.4 °F 77% 30.05 in 10.0 mi NW 12.7 mph - N/A   Overcast
4:13 PM 62.6 °F 55.4 °F 77% 30.05 in 10.0 mi WNW 10.4 mph - N/A   Overcast
4:58 PM 63.9 °F 54.9 °F 72% 30.04 in 10.0 mi NW 9.2 mph - N/A   Overcast
5:18 PM 62.6 °F 55.4 °F 77% 30.04 in 10.0 mi North 11.5 mph - N/A   Overcast
5:23 PM 62.6 °F 55.4 °F 77% 30.04 in 10.0 mi NNW 11.5 mph - N/A   Overcast
5:58 PM 62.8 °F 54.7 °F 75% 30.04 in 10.0 mi North 8.1 mph - N/A   Overcast
6:58 PM 62.4 °F 53.1 °F 71% 30.04 in 10.0 mi North 8.1 mph - N/A   Overcast
7:58 PM 60.1 °F 54.1 °F 81% 30.05 in 10.0 mi NNE 6.9 mph - N/A   Mostly Cloudy
8:58 PM 57.6 °F 53.6 °F 87% 30.04 in 10.0 mi North 3.5 mph - N/A   Partly Cloudy
9:58 PM 53.8 °F 52.2 °F 94% 30.06 in 10.0 mi North 6.9 mph - N/A   Mostly Cloudy
10:58 PM 52.5 °F 51.6 °F 97% 30.06 in 10.0 mi North 2.3 mph - N/A   Clear
11:58 PM 51.4 °F 51.1 °F 99% 30.06 in 10.0 mi NNW 1.2 mph - N/A   Clear